[Iaude] MPEC V83: 2016 VF3 [a=2.67,e=0.54,i=15.6,H=21.4]

mpec at si.edu mpec at si.edu
Wed Nov 9 13:10:26 EST 2016


M.P.E.C. 2016-V83                                Issued 2016 Nov.  9, 18:05 UT
 
     The Minor Planet Electronic Circulars contain information on unusual
         minor planets and routine data on comets.  They are published
    on behalf of Division F of the International Astronomical Union by the
          Minor Planet Center, Smithsonian Astrophysical Observatory,
                          Cambridge, MA 02138, U.S.A.

             Prepared using the Tamkin Foundation Computer Network

                              MPC at CFA.HARVARD.EDU
            URL http://www.minorplanetcenter.net/    ISSN 1523-6714


                                   2016 VF3
 
Observations:
     K16V03F* C2016 11 05.30696 00 05 00.285-21 19 43.49         21.1 wLEV083F51
     K16V03F  C2016 11 05.32316 00 05 01.324-21 18 37.32         21.0 wLEV083F51
     K16V03F  C2016 11 05.33124 00 05 01.835-21 18 04.38         21.1 wLEV083F51
     K16V03F KC2016 11 05.95115800 05 47.52 -20 35 21.8          21.0 RtEV083K93
     K16V03F KC2016 11 05.95742100 05 47.94 -20 34 55.7          20.7 RtEV083K93
     K16V03F KC2016 11 05.96264000 05 48.34 -20 34 34.1          20.5 RtEV083K93
     K16V03F |C2016 11 06.13609 00 06 02.10 -20 22 45.2          21.2 VuEV083807
     K16V03F |C2016 11 06.14018 00 06 02.38 -20 22 28.3          21.4 VuEV083807
     K16V03F |C2016 11 06.14411 00 06 02.65 -20 22 12.1          21.5 VuEV083807
     K16V03F  C2016 11 06.15453 00 06 04.41 -20 21 54.6          20.9 RoEV083926
     K16V03F  C2016 11 06.16076 00 06 04.84 -20 21 28.6          21.1 RoEV083926
     K16V03F KC2016 11 06.16652 00 06 05.26 -20 21 05.3          21.7 RoEV083291
     K16V03F  C2016 11 06.16700 00 06 05.26 -20 21 03.3          21.1 RoEV083926
     K16V03F KC2016 11 06.16762 00 06 05.31 -20 21 00.6          21.3 RoEV083291
     K16V03F KC2016 11 06.16872 00 06 05.40 -20 20 56.7          21.6 RoEV083291
     K16V03F _C2016 11 06.20655500 06 09.116-20 18 15.70         21.2 GUEV083568
     K16V03F _C2016 11 06.20760100 06 09.183-20 18 11.42         20.7 GUEV083568
     K16V03F _C2016 11 06.20864900 06 09.260-20 18 07.16         21.1 GUEV083568
     K16V03F |C2016 11 09.07797 00 09 56.03 -17 00 34.8          21.1 VuEV083807
     K16V03F |C2016 11 09.08328 00 09 56.47 -17 00 12.9          20.9 VuEV083807
     K16V03F |C2016 11 09.08877 00 09 56.88 -16 59 50.2          20.9 VuEV083807
     K16V03F  C2016 11 09.13602500 10 01.27 -16 56 59.9          21.0 VtEV083H01
     K16V03F  C2016 11 09.13934400 10 01.51 -16 56 46.3          20.9 VtEV083H01
     K16V03F  C2016 11 09.15340800 10 02.53 -16 55 48.1          21.6 VtEV083H01
     K16V03F  C2016 11 09.16201500 10 03.15 -16 55 12.4          21.3 VtEV083H01
 
Observer details:
291 LPL/Spacewatch II.  Observer A. F. Tubbiolo.  1.8-m f/2.7 reflector + CCD.
568 Mauna Kea.  Observers R. J. Wainscoat, C. Wipper.  Measurers M. Micheli,
    R. J. Wainscoat.  3.6-m Canada-France-Hawaii Telescope + CCD.
807 Cerro Tololo.  Observers T. Linder, R. Holmes.  0.61-m f/6.5 astrograph
    + CCD.
926 Tenagra II Observatory.  Observers M. Schwartz, P. R. Holvorcem.  Measurer
    M. Schwartz.  0.81-m f/7 Ritchey-Chretien + CCD.
F51 Pan-STARRS 1, Haleakala.  Observers B. Gibson, T. Goggia, S. Kahale,
    A. Schultz, M. Willman.  Measurers K. Chambers, S. Chastel, L. Denneau,
    H. Flewelling, M. Huber, E. Lilly, E. Magnier, R. Wainscoat, C. Waters,
    R. Weryk.  1.8-m Ritchey-Chretien + CCD.
H01 Magdalena Ridge Observatory, Socorro.  Observers W. H. Ryan, E. V. Ryan.
    Measurer W. H. Ryan.  2.4-m f/8.9 reflector + CCD.
K93 Sutherland-LCOGT C.  Observers T. Lister, S. Greenstreet, E. Gomez.
    Measurer T. Lister.  1.0-m f/8 Ritchey-Chretien + CCD.
 
Orbital elements:
2016 VF3                                                 Earth MOID = 0.2537 AU
Epoch 2016 July 31.0 TT = JDT 2457600.5                 MPC
M 339.61205              (2000.0)            P               Q
n   0.22592496     Peri.  332.76011     +0.89927800     -0.38327291
a   2.6698892      Node    51.38269     +0.43407441     +0.72298689
e   0.5408703      Incl.   15.64566     +0.05365159     +0.57479722
P   4.36           H   21.4           G   0.15           U   7
Residuals in seconds of arc
161105 F51  0.1-  0.1+    161106 926  0.1-  0.2-    161109 807  0.6-  0.2+
161105 F51  0.0   0.1+    161106 926  0.1+  0.2+    161109 807  0.1+  0.1+
161105 F51  0.0   0.1-    161106 291  0.4+  0.1+    161109 807  0.3+  0.1+
161105 K93  0.0   0.3-    161106 926  0.2+  0.0     161109 H01  0.2+  0.0
161105 K93  0.2-  0.2-    161106 291  0.1+  0.2+    161109 H01  0.2+  0.1-
161105 K93  0.3+  0.2-    161106 291  0.3+  0.4-    161109 H01  0.0   0.0
161106 807  0.2-  0.3+    161106 568  0.1+  0.0     161109 H01  0.2-  0.1+
161106 807  0.2-  0.3+    161106 568  0.0   0.0
161106 807  0.1-  0.3+    161106 568  0.1+  0.0

Ephemeris:
2016 VF3                 a,e,i = 2.67, 0.54, 16                  q = 1.2258
Date    TT    R. A. (2000) Decl.     Delta      r     Elong.  Phase     V
2016 10 10    23 46 10.5 -45 46 07   0.3668  1.2453   124.9    41.1    21.3
...
2016 10 25    23 53 25.8 -33 27 27   0.3439  1.2268   125.6    41.2    21.1
...
2016 11 02    00 01 06.1 -25 02 17   0.3429  1.2266   126.2    40.7    21.1
...
2016 11 08    00 08 28.5 -18 14 58   0.3489  1.2309   126.6    40.3    21.2
2016 11 09    00 09 49.7 -17 06 06   0.3505  1.2320   126.6    40.2    21.2
2016 11 10    00 11 12.9 -15 57 11   0.3523  1.2332   126.6    40.1    21.2
...
2016 11 16    00 20 11.8 -09 07 10   0.3670  1.2424   126.4    39.8    21.3
...
2016 11 24    00 33 44.2 -00 29 47   0.3972  1.2604   125.6    39.6    21.5
...
2016 12 09    01 03 17.5 +12 57 40   0.4849  1.3096   122.3    39.5    22.0

A. U. Tomatic                (C) Copyright 2016 MPC           M.P.E.C. 2016-V83




More information about the Iaude mailing list